TimeCDT,TemperatureF,Dew PointF,Humidity,Sea Level PressureIn,VisibilityMPH,Wind Direction,Wind SpeedMPH,Gust SpeedMPH,PrecipitationIn,Events,Conditions,WindDirDegrees,DateUTC
12:15 AM,59.2,52.0,77,29.65,10.0,NW,24.2,31.1,N/A,,Clear,310,2013-05-19 05:15:00
12:35 AM,59.2,51.8,77,29.67,10.0,NW,17.3,23.0,N/A,,Clear,310,2013-05-19 05:35:00
12:55 AM,59.2,52.0,77,29.68,10.0,WNW,10.4,19.6,N/A,,Clear,300,2013-05-19 05:55:00
1:15 AM,58.8,52.2,79,29.70,10.0,WNW,8.1,-,N/A,,Clear,290,2013-05-19 06:15:00
1:35 AM,58.1,52.7,82,29.72,10.0,Calm,Calm,-,N/A,,Clear,0,2013-05-19 06:35:00
1:55 AM,57.2,53.1,86,29.72,10.0,Calm,Calm,-,N/A,,Clear,0,2013-05-19 06:55:00
2:15 AM,56.3,52.7,88,29.72,10.0,Calm,Calm,-,N/A,,Clear,0,2013-05-19 07:15:00
2:35 AM,56.3,53.2,89,29.72,10.0,ESE,4.6,-,N/A,,Clear,120,2013-05-19 07:35:00
2:55 AM,55.9,53.2,91,29.72,10.0,Calm,Calm,-,N/A,,Clear,0,2013-05-19 07:55:00
3:15 AM,55.6,52.7,90,29.72,10.0,Calm,Calm,-,N/A,,Clear,0,2013-05-19 08:15:00
3:35 AM,55.8,53.1,91,29.71,10.0,Calm,Calm,-,N/A,,Scattered Clouds,0,2013-05-19 08:35:00
3:55 AM,55.2,52.7,91,29.70,10.0,SSE,5.8,-,N/A,,Scattered Clouds,150,2013-05-19 08:55:00
4:15 AM,54.5,52.3,92,29.70,10.0,SW,4.6,-,N/A,,Clear,230,2013-05-19 09:15:00
4:35 AM,55.4,52.9,91,29.71,10.0,SW,3.5,-,N/A,,Clear,230,2013-05-19 09:35:00
4:55 AM,54.9,52.7,92,29.71,10.0,SW,4.6,-,N/A,,Clear,230,2013-05-19 09:55:00
5:15 AM,55.2,53.1,92,29.71,10.0,SW,3.5,-,N/A,,Clear,220,2013-05-19 10:15:00
5:35 AM,54.7,52.7,93,29.71,10.0,West,3.5,-,N/A,,Clear,260,2013-05-19 10:35:00
5:55 AM,55.0,53.1,93,29.71,10.0,WSW,8.1,-,N/A,,Clear,250,2013-05-19 10:55:00
6:15 AM,55.4,52.9,91,29.72,10.0,SW,11.5,-,N/A,,Clear,220,2013-05-19 11:15:00
6:35 AM,55.9,53.2,91,29.74,10.0,SW,11.5,17.3,N/A,,Scattered Clouds,220,2013-05-19 11:35:00
6:55 AM,57.2,53.6,88,29.74,10.0,SW,9.2,-,N/A,,Scattered Clouds,230,2013-05-19 11:55:00
7:15 AM,57.2,53.6,88,29.71,10.0,WSW,3.5,-,N/A,Rain,Light Rain,250,2013-05-19 12:15:00
7:35 AM,56.8,54.1,91,29.71,10.0,West,9.2,-,N/A,,Scattered Clouds,260,2013-05-19 12:35:00
7:55 AM,57.9,54.5,88,29.70,10.0,WSW,10.4,-,N/A,,Clear,250,2013-05-19 12:55:00
8:15 AM,59.0,53.6,82,29.67,10.0,West,10.4,-,N/A,,Clear,270,2013-05-19 13:15:00
8:35 AM,59.9,53.8,80,29.66,10.0,WNW,8.1,-,N/A,,Clear,290,2013-05-19 13:35:00
8:55 AM,60.8,54.0,78,29.66,10.0,Calm,Calm,-,N/A,,Clear,0,2013-05-19 13:55:00
9:15 AM,61.7,54.1,76,29.67,10.0,NW,3.5,-,N/A,,Clear,320,2013-05-19 14:15:00
9:35 AM,62.6,55.4,77,29.66,10.0,NW,9.2,-,N/A,,Clear,310,2013-05-19 14:35:00
9:55 AM,62.6,55.6,78,29.66,10.0,NNW,4.6,-,N/A,,Clear,330,2013-05-19 14:55:00
10:15 AM,62.8,55.4,77,29.67,10.0,NW,3.5,-,N/A,,Clear,320,2013-05-19 15:15:00
10:35 AM,64.0,56.3,76,29.67,10.0,NNW,5.8,-,N/A,,Scattered Clouds,330,2013-05-19 15:35:00
10:55 AM,65.1,56.3,73,29.67,10.0,North,4.6,-,N/A,,Mostly Cloudy,350,2013-05-19 15:55:00
11:15 AM,65.3,56.1,72,29.67,10.0,North,4.6,-,N/A,,Mostly Cloudy,350,2013-05-19 16:15:00
11:35 AM,65.3,55.0,69,29.69,10.0,Calm,Calm,-,N/A,,Overcast,0,2013-05-19 16:35:00
11:55 AM,65.3,57.0,75,29.68,7.0,NW,6.9,-,0.02,Rain,Light Rain,320,2013-05-19 16:55:00
12:15 PM,65.3,56.7,74,29.67,10.0,NNW,5.8,-,N/A,,Overcast,330,2013-05-19 17:15:00
12:35 PM,65.3,55.6,71,29.67,10.0,NNE,3.5,-,N/A,,Overcast,30,2013-05-19 17:35:00
12:55 PM,64.9,56.3,74,29.67,10.0,North,3.5,-,N/A,,Overcast,10,2013-05-19 17:55:00
1:15 PM,65.1,55.8,72,29.66,10.0,NNE,4.6,-,N/A,Rain,Light Rain,30,2013-05-19 18:15:00
1:35 PM,65.3,54.9,69,29.65,10.0,NNE,4.6,-,N/A,Rain,Light Rain,20,2013-05-19 18:35:00
1:55 PM,68.0,55.4,64,29.64,10.0,NNE,6.9,-,N/A,,Overcast,30,2013-05-19 18:55:00
2:15 PM,67.6,53.4,60,29.64,10.0,ENE,5.8,-,N/A,Thunderstorm,Overcast,60,2013-05-19 19:15:00
2:35 PM,67.5,54.7,64,29.63,10.0,ENE,4.6,-,N/A,,Overcast,70,2013-05-19 19:35:00
2:55 PM,67.8,54.3,62,29.62,10.0,ENE,5.8,-,N/A,,Overcast,70,2013-05-19 19:55:00
3:15 PM,68.2,55.0,63,29.62,10.0,ENE,6.9,-,N/A,Thunderstorm,Thunderstorm,60,2013-05-19 20:15:00
3:35 PM,67.8,54.3,62,29.62,10.0,Calm,Calm,-,N/A,Thunderstorm,Overcast,0,2013-05-19 20:35:00
3:55 PM,68.2,55.0,63,29.62,10.0,East,3.5,-,N/A,Thunderstorm,Overcast,80,2013-05-19 20:55:00
4:15 PM,68.2,54.3,61,29.61,10.0,ENE,4.6,-,N/A,Thunderstorm,Overcast,60,2013-05-19 21:15:00
4:35 PM,67.6,54.5,63,29.60,10.0,East,5.8,-,N/A,Rain-Thunderstorm,Rain,80,2013-05-19 21:35:00
4:55 PM,66.6,56.5,70,29.61,10.0,ENE,5.8,-,N/A,Rain-Thunderstorm,Light Thunderstorms and Rain,70,2013-05-19 21:55:00
5:15 PM,61.7,54.7,78,29.62,3.0,Calm,Calm,-,0.09,Rain-Thunderstorm,Heavy Thunderstorms and Rain,0,2013-05-19 22:15:00
5:35 PM,60.8,55.0,81,29.59,5.0,NW,5.8,-,0.29,Rain-Thunderstorm,Thunderstorms and Rain,320,2013-05-19 22:35:00
5:55 PM,61.3,54.0,77,29.59,10.0,WNW,9.2,21.9,0.30,Rain-Thunderstorm,Light Thunderstorms and Rain,300,2013-05-19 22:55:00
6:15 PM,58.1,54.0,86,29.59,10.0,NNW,12.7,-,N/A,Rain-Thunderstorm,Light Thunderstorms and Rain,330,2013-05-19 23:15:00
6:35 PM,58.5,52.9,82,29.61,10.0,West,8.1,-,N/A,Rain-Thunderstorm,Light Thunderstorms and Rain,260,2013-05-19 23:35:00
6:55 PM,58.1,53.6,85,29.57,5.0,NNW,17.3,-,0.05,Rain-Thunderstorm,Rain,330,2013-05-19 23:55:00
7:15 PM,57.9,54.5,88,29.58,10.0,NW,12.7,-,0.01,Rain,Light Rain,320,2013-05-20 00:15:00
7:35 PM,58.1,55.0,90,29.58,10.0,NNW,11.5,-,0.01,,Scattered Clouds,340,2013-05-20 00:35:00
7:55 PM,58.3,55.4,90,29.59,10.0,North,11.5,-,0.01,,Scattered Clouds,350,2013-05-20 00:55:00
8:15 PM,58.6,56.3,92,29.60,10.0,North,10.4,-,N/A,,Mostly Cloudy,10,2013-05-20 01:15:00
8:35 PM,58.1,55.4,91,29.61,10.0,North,15.0,-,N/A,,Mostly Cloudy,360,2013-05-20 01:35:00
8:55 PM,58.1,55.4,91,29.60,10.0,North,9.2,-,N/A,,Scattered Clouds,360,2013-05-20 01:55:00
9:15 PM,58.3,55.9,92,29.61,10.0,NNW,8.1,-,N/A,,Overcast,340,2013-05-20 02:15:00
9:35 PM,58.5,56.3,93,29.60,10.0,NNW,11.5,-,N/A,,Overcast,340,2013-05-20 02:35:00
9:55 PM,58.6,56.3,92,29.61,10.0,NNW,13.8,-,N/A,,Overcast,340,2013-05-20 02:55:00
10:15 PM,58.6,55.9,91,29.62,10.0,NNW,12.7,-,N/A,,Overcast,330,2013-05-20 03:15:00
10:35 PM,58.3,55.0,89,29.63,10.0,NNW,9.2,-,N/A,,Drizzle,330,2013-05-20 03:35:00
10:55 PM,59.0,53.6,82,29.63,10.0,NW,10.4,-,N/A,,Drizzle,320,2013-05-20 03:55:00
11:15 PM,57.4,51.8,82,29.63,10.0,NNW,13.8,-,0.01,Rain,Light Rain,330,2013-05-20 04:15:00
11:35 PM,56.7,51.1,82,29.63,10.0,NW,13.8,-,0.02,Rain,Light Rain,320,2013-05-20 04:35:00
11:55 PM,56.3,51.3,83,29.63,10.0,NW,12.7,-,0.03,Rain,Rain,310,2013-05-20 04:55:00